铱星星座 131星 (IRIDIUM 131)

导读 | 星芒AI

IRIDIUM 131 是 Iridium 卫星通信公司运营的星座中的一颗卫星,属于 Iridium NEXT 计划的一部分。该计划旨在更新第一代 Iridium 卫星系统,提供更先进、更可靠的全球移动通信服务。IRIDIUM 131 于 2017 年发射,运行在低地球轨道,支持语音通话、数据传输和全球定位服务。该卫星采用模块化设计,具备抗干扰能力和高带宽,广泛应用于航空、航海、军事和应急通信等领域。Iridium NEXT 共由 66 颗卫星组成,IRIDIUM 131 在其中发挥关键作用,确保全球无缝通信覆盖。

基本信息
目录编号:
43079
目录名称:
IRIDIUM 131
国际标识:
2017-083K
轨道中心:
EARTH
卫星名称:
铱星星座 131星
卫星全名:
铱星星座 131星 (IRIDIUM 131)
卫星状态:
在轨 (已飞行2867 天)
发射日期:
2017-12-23 UTC
国别 :
美国 (US)
星等 :
--
轨道信息
数据来源 国际轨道数据 AOE轨道数据
星历时间 2025-10-28T18:02:47+0800
21小时前
查看轨道信息
2025-10-27T13:00:00+0800
2天前
查看轨道信息
半长轴 7155.808km 7155.807km
偏心率 0.0002051 0.0002108
轨道倾角 86.398° 86.398°
近地点辐角 93.424° 94.743°
升交点赤经 59.035° 59.539°
平近点角 266.720° 140.510°
近地点 776.205km 776.163km
远地点 779.141km 779.181km
周期 100.403分钟 100.403分钟
每日圈数 14.342167 14.34217
详细信息
平衡模式:
三轴稳定
覆盖范围:
全球
运营商:
铱星通信公司
运营商所在国:
美国
制造商(研发单位):
阿莱尼亚宇航公司
制造商所在国:
意大利
使用方式:
暂无
卫星简介
铱星(Iridium)是由共66个运作中的通信卫星组成的卫星通信系统。这个系统原本规划77个通信卫星,所以用原子序数为77的铱元素来命名。铱卫星允许人们使用手持型电子设备进行全球性的语音及数据通讯。该卫星仍在工作。
2D轨道图
3D轨道图
轨道高度分析图
轨道倾角分析图
轨道综合分析图
查看轨道综合分析图